sat.trackr.live / text

‹ back to catalog

STARLINK-11623 [DTC]

NORAD 63276 · 2025-053M

PAYLOAD ACTIVE UNKNOWN

§ Identity

Operator
Country
US
Launch date
2025-03-15
Launch site
AFETR
Launch vehicle
Mass (kg)
RCS (m²)

Purposes: comms

External: N2YO · Heavens-Above · Gunter

§ Orbital elements

Epoch: 2026-09-20T14:56:25.391904Z

Period
91.67 min
Inclination
42.9995°
Eccentricity
0.0004066
Mean motion
15.70849883 rev/d
Perigee alt
353.7 km
Apogee alt
359.2 km
Semi-major
6,734.6 km
B*
1.0849e-3
RAAN
17.5730°
Arg perigee
279.7613°
Mean anomaly
80.2795°
Rev number
8,831

§ Raw data

STARLINK-11623 [DTC]1 63276U 25053M   26263.62251611  .00141245  00000+0  10849-2 0  99922 63276  42.9995  17.5730 0004066 279.7613  80.2795 15.70849883 88312

JSON: /api/v1/satellites/63276 · /tle

For live sub-satellite position, see the globe view (requires WebGL).

§ Visibility from observer

Set your observer location to see the next 7 days of passes ≥ 10°. The values pass through the URL so the page stays shareable.

No JS? Fill the form by hand. The geolocation button needs JavaScript.